Location: Unspecified
(0.0000°N, 0.0000°E)
Time: 14:02:54
(UTC+00:00)

deb Midas V - Pass Details

Date: 14 April 2026
Orbit: 2771 x 3389 km, 86.6° (Epoch: 16 May)

Event Time Altitude Azimuth Distance (km) Brightness Sun altitude
Rises 19:24:18 0° 350° (N) 7,376 ? -20.7°
Reaches altitude 10° 19:28:44 10° 346° (NNW) 6,324 ? -21.8°
Maximum altitude 19:45:23 54° 274° (W) 3,680 ? -25.9°
Drops below altitude 10° 20:01:01 10° 199° (SSW) 5,892 ? -29.7°
Sets 20:05:04 0° 194° (SSW) 6,849 ? -30.7°
